Home > Weather > Amravati > Past weeks

Flag for India Past Weather in Amravati, Maharashtra, India — Yesterday and Last 2 Weeks

Now
84 °F

Broken clouds.


Feels Like: 92 °F
Forecast: 76 / 84 °F
Wind: 5 mph from Southwest

Location: Nagpur Sonegaon

Current Time: Jul 25, 2016 at 11:52:15 AM

Latest Report: Jul 25, 2016 at 10:30 AM


Visibility: 3 mi

Pressure: 29.74 "Hg

Humidity: 74%

Dew Point: 75 °F

Location of AmravatiLocation

Past Weather in Amravati — Graph

°F

Amravati Temperature Yesterday

Maximum temperature yesterday: 90 °F (at 12:30 PM)
Minimum temperature yesterday: 79 °F (at 12:30 AM)
Average temperature yesterday: 84 °F

High & Low Weather Summary for the Past Weeks

 TemperatureHumidityPressure
High102 °F (Jul 15, 11:00 AM)100% (Jul 12, 5:00 PM)29.83 "Hg (Jul 12, 5:00 PM)
Low73 °F (Jul 12, 5:00 PM)42% (Jul 15, 11:00 AM)29.42 "Hg (Jul 10, 3:30 PM)
Average82 °F83%29.65 "Hg
* Reported Jul 10 10:30 AM — Jul 25 10:30 AM, Amravati, Weather by CustomWeather, © 2016

Note: Actual official high and low records may vary slightly from our data, if they occured in-between our weather recording intervals... More about our weather records

Advertising

Amravati Weather History for the Previous 24 Hours

Scroll right to see more
 ConditionsComfort  
Time TempWeatherWind HumidityBarometerVisibility
10:30 AM
Mon, Jul 25
84 °FBroken clouds.5 mph74%29.74 "Hg3 mi
9:30 AM82 °FBroken clouds.2 mph84%29.74 "Hg2 mi
9:00 AM82 °FBroken clouds.2 mph79%29.74 "Hg2 mi
8:30 AM82 °FBroken clouds.3 mph84%29.74 "Hg2 mi
8:00 AM81 °FBroken clouds.5 mph89%29.71 "Hg2 mi
7:30 AM79 °FBroken clouds.6 mph94%29.71 "Hg2 mi
7:00 AM79 °FBroken clouds.5 mph94%29.71 "Hg1 mi
6:30 AM81 °FBroken clouds.6 mph89%29.71 "Hg2 mi
6:00 AM81 °FPartly cloudy.6 mph89%29.68 "Hg2 mi
5:00 AM81 °FPartly cloudy.5 mph89%29.68 "Hg2 mi
4:30 AM81 °FPartly cloudy.5 mph89%29.68 "Hg2 mi
4:00 AM81 °FPassing clouds.2 mph94%29.65 "Hg2 mi
3:30 AM84 °FPassing clouds.No wind79%29.65 "Hg2 mi
3:00 AM81 °FPassing clouds.No wind89%29.65 "Hg2 mi
2:30 AM79 °FPartly cloudy.No wind94%29.68 "Hg2 mi
2:00 AM79 °FPartly cloudy.No wind94%29.68 "Hg2 mi
1:30 AM79 °FPartly cloudy.2 mph94%29.68 "Hg2 mi
1:00 AM79 °FPartly cloudy.No wind94%29.68 "Hg2 mi
12:30 AM81 °FPartly cloudy.2 mph89%29.68 "Hg2 mi
12:00 AM81 °FPartly cloudy.No wind89%29.68 "Hg2 mi
11:30 PM
Sun, Jul 24
81 °FPartly cloudy.No wind89%29.68 "Hg2 mi
11:00 PM81 °FPartly cloudy.No wind89%29.71 "Hg2 mi
10:30 PM82 °FPartly cloudy.No wind89%29.71 "Hg2 mi
10:00 PM82 °FMostly cloudy.3 mph84%29.71 "Hg2 mi
9:30 PM82 °FMostly cloudy.No wind89%29.71 "Hg2 mi
9:00 PM82 °FMostly cloudy.No wind89%29.68 "Hg2 mi
8:30 PM82 °FMostly cloudy.3 mph89%29.68 "Hg2 mi
8:00 PM84 °FMostly cloudy.2 mph89%29.68 "Hg2 mi
7:30 PM84 °FPartly cloudy.3 mph84%29.65 "Hg2 mi
7:00 PM84 °FBroken clouds.5 mph84%29.62 "Hg2 mi
6:30 PM84 °FBroken clouds.No wind89%29.62 "Hg2 mi
6:00 PM86 °FBroken clouds.No wind84%29.62 "Hg2 mi
5:30 PM84 °FBroken clouds.No wind89%29.59 "Hg2 mi
5:00 PM90 °FScattered clouds.3 mph71%29.59 "Hg2 mi
4:30 PM86 °FThunderstorms. Broken clouds.7 mph75%N/A1 mi
4:00 PM90 °FScattered clouds.2 mph71%29.59 "Hg2 mi
3:30 PM90 °FScattered clouds.3 mph71%29.59 "Hg2 mi
3:00 PM90 °FScattered clouds.2 mph67%29.59 "Hg2 mi
2:30 PM90 °FScattered clouds.2 mph67%29.62 "Hg2 mi
2:00 PM88 °FScattered clouds.No wind75%29.62 "Hg2 mi
1:30 PM86 °FScattered clouds.No wind79%29.65 "Hg2 mi
1:00 PM90 °FScattered clouds.2 mph67%29.65 "Hg2 mi
12:30 PM90 °FScattered clouds.No wind67%29.71 "Hg2 mi
12:00 PM88 °FScattered clouds.No wind70%29.71 "Hg2 mi
11:30 AM88 °FScattered clouds.No wind70%29.71 "Hg2 mi
11:00 AM88 °FScattered clouds.2 mph70%29.71 "Hg2 mi
Weather by CustomWeather, © 2016

See weather overviewHow to use our weather pages